Location: Bégole
(43.1574°N, 0.3291°E)
Time: 09:58:56
(UTC+00:00)

NOAA 16 DEB - Pass Details

Date: 29 February 2024
Orbit: 831 x 876 km, 98.7° (Epoch: 12 April)

Event Time Altitude Azimuth Distance (km) Brightness Sun altitude
Rises 19:17:17 0° 168° (SSE) 3,405 ? -17.2°
Reaches altitude 10° 19:19:40 10° 170° (S) 2,466 ? -17.6°
Maximum altitude 19:25:08 77° 257° (WSW) 867 ? -18.6°
Drops below altitude 10° 19:30:36 10° 343° (NNW) 2,458 ? -19.6°
Sets 19:32:57 0° 345° (NNW) 3,393 ? -20.0°
